Regional Weather Roundup
Issued by NWS

Home | Current Version | Previous Version | Text Only | Print | Product List | Glossary Off
Versions: 1 2 3 4 5 6 7 8 9 10 11 12 13 14 15 16 17 18 19 20 21 22 23 24 25 26 27 28 29 30 31 32 33 34 35 36 37 38 39 40 41 42 43 44 45 46 47 48 49 50

000
ASUS43 KMKX 261111
RWRWI

WISCONSIN REGIONAL WEATHER ROUNDUP
NATIONAL WEATHER SERVICE MILWAUKEE/SULLIVAN WI
600 AM CDT TUE SEP 26 2017

NOTE: "FAIR" INDICATES FEW OR NO CLOUDS BELOW 12,000 FEET WITH NO
SIGNIFICANT WEATHER AND/OR OBSTRUCTIONS TO VISIBILITY.

WIZ001-002-006>008-014>016-023>028-261200-
NORTHWEST WISCONSIN

CITY           SKY/WX    TMP DP  RH WIND       PRES   REMARKS
SUPERIOR ARPT  DRIZZLE   56  55  99 NE13G18   29.92F
ASHLAND        LGT RAIN  57  56  96 NE7       29.91F
HAYWARD        LGT RAIN  59  57  93 NE3       29.90F
SIREN          LGT RAIN  57  57  97 CALM      29.90S
CUMBERLAND     LGT RAIN  57  55  94 CALM      29.90S VSB 1
RICE LAKE      FOG       60  60  98 CALM      29.92R VSB 3/4
CHETEK         FOG       61  61 100 CALM      29.90S VSB 1/2
LADYSMITH      FOG       62  61  97 CALM      29.91F VSB 1/2
EAU CLAIRE     CLOUDY    63  63 100 SW3       29.89S FOG
MENOMONIE      FOG       62  62 100 CALM      29.90F VSB 1
NEW RICHMOND   DRIZZLE   58  58  98 CALM      29.90F
OSCEOLA        RAIN      58  58 100 W3        29.93F
$$

WIZ003>005-009-010-017-018-261200-
NORTH CENTRAL WISCONSIN

CITY           SKY/WX    TMP DP  RH WIND       PRES   REMARKS
MANITOWISH WTR NOT AVBL
ARBOR VITAE    FOG       63  62  96 CALM      29.91S VSB 1/2
WOODRUFF       FOG       63  62  96 CALM      29.91S VSB 1/2
RHINELANDER    CLOUDY    63  63 100 CALM      29.92F
EAGLE RIVER    CLOUDY    63  63 100 CALM      29.91F FOG
LAND O LAKES   FOG       61  61 100 CALM      29.93F VSB 1/4
PHILLIPS       FOG       60  60 100 CALM      29.90S VSB 1/4
TOMAHAWK       MOCLDY    61  60  97 CALM      29.91F FOG
MEDFORD        CLOUDY    61  60  99 S3        29.91S FOG
MERRILL        CLOUDY    64  64 100 SE3       29.92S
$$

WIZ029-030-035-036-043>047-261200-
CENTRAL WISCONSIN

CITY           SKY/WX    TMP DP  RH WIND       PRES   REMARKS
WAUSAU         MOCLDY    65  64  97 S8        29.92R
MOSINEE        RAIN      64  64 100 S6        29.94R
MARSHFIELD     CLOUDY    64  62  93 CALM      29.91F FOG
STEVENS POINT  CLOUDY    64  64 100 CALM      29.93S
WAUPACA        LGT RAIN  67  65  96 CALM      29.93R
WAUTOMA        LGT RAIN  65  64  97 CALM      29.94R
WISC RAPIDS    CLOUDY    66  65  96 CALM      29.93R
CAMP DOUGLAS   FOG       64  64 100 CALM      29.90F VSB 1/2
$$

WIZ011>013-019>022-031-037>040-048>050-261200-
NORTHEAST WISCONSIN

CITY           SKY/WX    TMP DP  RH WIND       PRES   REMARKS
ANTIGO         CLOUDY    63  63 100 SE3       29.93S
SHAWANO        MOCLDY    66  64  92 CALM      29.90F
OCONTO         MOCLDY    60  59  98 CALM      29.91S
STURGEON BAY   CLOUDY    61  60  97 CALM      29.92F
GREEN BAY      PTCLDY    61  61 100 CALM      29.91F
MANITOWOC      CLEAR     60  59  96 CALM      29.93S
APPLETON       PTCLDY    64  61  88 CALM      29.90F
CLINTONVILLE   CLOUDY    64  63  94 S3        29.91F
OSHKOSH        PTCLDY    63  61  93 S6        29.91F
$$

WIZ032>034-041-042-053>061-261200-
SOUTHWEST WISCONSIN

CITY           SKY/WX    TMP DP  RH WIND       PRES   REMARKS
LA CROSSE      LGT RAIN  68  67  96 S6        29.90F
SPARTA         MOCLDY    58  58 100 CALM      29.92S FOG
VIROQUA        CLOUDY    64  64 100 CALM      29.93S
BOSCOBEL       FOG       67  66  97 CALM      29.92R VSB 1/4
PRAIRIE DU CHI DRIZZLE   66  64  94 CALM      29.92R
PLATTEVILLE    CLOUDY    66  66 100 E7        29.92F
$$

WIZ056-057-062-063-064-067-068-261200-
SOUTH CENTRAL WISCONSIN

CITY           SKY/WX    TMP DP  RH WIND       PRES   REMARKS
REEDSBURG      MOCLDY    64  64 100 CALM      29.91F FOG
BARABOO/DELLS  MOCLDY    65  63  93 CALM      29.92F
LONE ROCK      CLOUDY    66  66 100 SE5       29.91S FOG
MINERAL POINT  CLOUDY    64  64 100 SE6       29.93S
MADISON        MOCLDY    69  62  78 E6        29.91F
MIDDLETON      PTCLDY    67  67 100 CALM      29.92S
WATERTOWN      MOCLDY    63  63 100 E3        29.92F
MONROE         MOCLDY    66  61  82 E6        29.93S
JANESVILLE     CLOUDY    66  66 100 E3        29.93S
$$

WIZ051-052-058>065-066-070>072-261200-
SOUTHEAST WISCONSIN

CITY           SKY/WX    TMP DP  RH WIND       PRES   REMARKS
MILWAUKEE      PTCLDY    66  60  81 CALM      29.93R
WAUKESHA       CLEAR     61  57  88 CALM      29.95S
MILWAUKEE/TIMM CLEAR     63  55  77 CALM      29.94S
RACINE         MOCLDY    65  62  90 CALM      29.95R
BURLINGTON     PTCLDY    58  58 100 CALM      29.94R
KENOSHA        PTCLDY    65  59  81 CALM      29.94S
FOND DU LAC    CLEAR     63  60  90 SW5       29.93S
SHEBOYGAN      CLEAR     60  60 100 SW3       29.93S
WEST BEND        N/A     59  59 100 CALM      29.94S
JUNEAU         PTCLDY    62  60  94 CALM      29.94F
$$

LSZ147-162-261200-
LAKE SUPERIOR

STATION/POSITION TIME  TEMP    WIND        PRES    WAVE
                       AIR SEA DIR/SP/G            HT/PER
                 (UTC) (F)     (DEG/KT/KT) (MB)    (FT/S)
W MID LAKE BUOY  1050   55 55   50/ 17/ 19 1013.1F   5/ 6
DEVILS ISLAND    1100   55      50/ 24/ 26 1013.4F
SAXON HARBOR     1040   59      90/  6/  8 1012.2F
$$

LMZ867-665-643>646-261200-
LAKE MICHIGAN

STATION/POSITION TIME  TEMP    WIND        PRES    WAVE
                       AIR SEA DIR/SP/G            HT/PER
                 (UTC) (F)     (DEG/KT/KT) (MB)    (FT/S)
S GREEN BAY BUOY 1100   67 70   50/  6/  6 1012.9
N MID LAKE BUOY  1050   68 67  170/  6/  6 1013.4S   1
NORTHPORT PIER   1040   64        CALM     1012.9F
KEWAUNEE LAKESHO 1048   62     300/  3/  4 1012.2F
SHEBOYGAN LAKESH 1100   68     250/  2/  2 1012.9S
PORT WASHINGTON  1040   66     290/  2/  4 1014.2S
ATWATER BUOY     1039   64 62  180/  2/  2 1013.7F
MILWAUKEE LAKESH 1050   66     170/  1/  2   N/A
S MID LAKE BUOY  1050   72 71  160/  8/ 10 1013.3S   0
KENOSHA   LAKESH 1100   71        CALM     1013.5
$$

TC  - TEMPERATURE IN CELSIUS
VSB - VISIBILITY IN STATUTE MILES
WCI - WIND CHILL INDEX
HX  - HEAT INDEX




USA.gov is the U.S. government's official web portal to all federal, state and local government web resources and services.